| time (UTC) | temp F | wind direction | speed MPH | gust MPH | rain 1hr in | rain 24hr in | rain mn in | humidity % | barometer mb |
| 20260901000016 | 87 | 256 | 3.0 | 9.0 | 0.00 | 0.00 | 0.00 | 45 | 1011.8 |
| 20260831234516 | 87 | 95 | 2.0 | 11.0 | 0.00 | 0.00 | 0.00 | 45 | 1011.8 |
| 20260831233015 | 87 | 189 | 4.0 | 12.0 | 0.00 | 0.00 | 0.00 | 44 | 1011.8 |
| 20260831231513 | 88 | 176 | 4.0 | 11.0 | 0.00 | 0.00 | 0.00 | 42 | 1011.9 |
| 20260831230013 | 89 | 242 | 5.0 | 10.0 | 0.00 | 0.00 | 0.00 | 41 | 1012.0 |
| 20260831224513 | 89 | 267 | 6.0 | 11.0 | 0.00 | 0.00 | 0.00 | 40 | 1012.2 |
| 20260831223012 | 89 | 253 | 4.0 | 13.0 | 0.00 | 0.00 | 0.00 | 38 | 1012.1 |
| 20260831221511 | 90 | 122 | 7.0 | 13.0 | 0.00 | 0.00 | 0.00 | 37 | 1012.3 |
| 20260831220012 | 90 | 243 | 6.0 | 13.0 | 0.00 | 0.00 | 0.00 | 38 | 1012.3 |
| 20260831214511 | 90 | 178 | 5.0 | 11.0 | 0.00 | 0.00 | 0.00 | 39 | 1012.3 |
| 20260831213013 | 90 | 242 | 6.0 | 12.0 | 0.00 | 0.00 | 0.00 | 38 | 1012.2 |
| 20260831211509 | 91 | 215 | 3.0 | 11.0 | 0.00 | 0.00 | 0.00 | 38 | 1012.3 |
| 20260831210008 | 90 | 169 | 5.0 | 12.0 | 0.00 | 0.00 | 0.00 | 39 | 1012.7 |
| 20260831204508 | 91 | 190 | 4.0 | 10.0 | 0.00 | 0.00 | 0.00 | 39 | 1012.6 |
| 20260831203007 | 91 | 203 | 1.0 | 8.0 | 0.00 | 0.00 | 0.00 | 39 | 1012.6 |
| 20260831201505 | 90 | 176 | 6.0 | 14.0 | 0.00 | 0.00 | 0.00 | 39 | 1012.7 |
| 20260831200004 | 90 | 184 | 3.0 | 9.0 | 0.00 | 0.00 | 0.00 | 38 | 1012.7 |
| 20260831194504 | 91 | 163 | 2.0 | 8.0 | 0.00 | 0.00 | 0.00 | 37 | 1012.8 |
| 20260831193001 | 90 | 174 | 6.0 | 12.0 | 0.00 | 0.00 | 0.00 | 39 | 1013.0 |
| 20260831191604 | 90 | 180 | 4.0 | 9.0 | 0.00 | 0.00 | 0.00 | 41 | 1013.1 |
| 20260831190107 | 90 | 167 | 3.0 | 10.0 | 0.00 | 0.00 | 0.00 | 41 | 1013.0 |
| 20260831184557 | 88 | 251 | 1.0 | 9.0 | 0.00 | 0.00 | 0.00 | 41 | 1013.2 |
| 20260831183050 | 88 | 132 | 4.0 | 9.0 | 0.00 | 0.00 | 0.00 | 44 | 1013.2 |
| 20260831181553 | 87 | 97 | 4.0 | 9.0 | 0.00 | 0.00 | 0.00 | 46 | 1013.3 |
| 20260831180043 | 86 | 245 | 4.0 | 8.0 | 0.00 | 0.00 | 0.00 | 47 | 1013.2 |
| 20260831174541 | 85 | 258 | 2.0 | 7.0 | 0.00 | 0.00 | 0.00 | 51 | 1013.3 |
| 20260831173036 | 84 | 271 | 1.0 | 6.0 | 0.00 | 0.00 | 0.00 | 53 | 1013.3 |
| 20260831171536 | 83 | 192 | 1.0 | 8.0 | 0.00 | 0.00 | 0.00 | 56 | 1013.2 |
| 20260831170028 | 81 | 164 | 0.0 | 8.0 | 0.00 | 0.00 | 0.00 | 59 | 1013.3 |
| 20260831164536 | 79 | 111 | 0.0 | 6.0 | 0.00 | 0.00 | 0.00 | 63 | 1013.2 |
| 20260831163019 | 78 | 226 | 2.0 | 6.0 | 0.00 | 0.00 | 0.00 | 65 | 1013.2 |
| 20260831161515 | 77 | 169 | 1.0 | 5.0 | 0.00 | 0.00 | 0.00 | 68 | 1013.3 |
| 20260831160010 | 76 | 186 | 1.0 | 5.0 | 0.00 | 0.00 | 0.00 | 71 | 1013.3 |
| 20260831154507 | 75 | 170 | 1.0 | 5.0 | 0.00 | 0.00 | 0.00 | 74 | 1013.3 |
| 20260831153001 | 74 | 254 | 0.0 | 2.0 | 0.00 | 0.00 | 0.00 | 77 | 1013.3 |
| 20260831151558 | 72 | 38 | 0.0 | 4.0 | 0.00 | 0.00 | 0.00 | 79 | 1013.2 |
| 20260831150105 | 71 | 62 | 0.0 | 2.0 | 0.00 | 0.00 | 0.00 | 83 | 1013.1 |
| 20260831144550 | 70 | 359 | 0.0 | 4.0 | 0.00 | 0.00 | 0.00 | 84 | 1013.0 |
| 20260831143044 | 70 | 5 | 0.0 | 3.0 | 0.00 | 0.00 | 0.00 | 84 | 1013.0 |
| 20260831141539 | 69 | 5 | 2.0 | 5.0 | 0.00 | 0.00 | 0.00 | 85 | 1012.8 |
| 20260831140037 | 69 | 38 | 1.0 | 5.0 | 0.00 | 0.00 | 0.00 | 84 | 1012.6 |
| 20260831134533 | 69 | 49 | 1.0 | 5.0 | 0.00 | 0.00 | 0.00 | 84 | 1012.4 |
| 20260831133035 | 70 | 23 | 1.0 | 4.0 | 0.00 | 0.00 | 0.00 | 85 | 1012.3 |
| 20260831131529 | 70 | 336 | 1.0 | 5.0 | 0.00 | 0.00 | 0.00 | 85 | 1012.0 |
| 20260831130027 | 70 | 20 | 0.0 | 4.0 | 0.00 | 0.00 | 0.00 | 85 | 1012.0 |
| 20260831124547 | 70 | 88 | 0.0 | 2.0 | 0.00 | 0.00 | 0.00 | 85 | 1012.0 |
| 20260831123027 | 70 | 80 | 0.0 | 3.0 | 0.00 | 0.00 | 0.00 | 86 | 1012.1 |
| 20260831121526 | 70 | 78 | 0.0 | 4.0 | 0.00 | 0.00 | 0.00 | 86 | 1012.0 |
| 20260831120029 | 70 | 70 | 0.0 | 4.0 | 0.00 | 0.00 | 0.00 | 86 | 1011.9 |
| 20260831114537 | 70 | 101 | 4.0 | 6.0 | 0.00 | 0.00 | 0.00 | 86 | 1012.0 |
| 20260831113024 | 70 | 77 | 0.0 | 5.0 | 0.00 | 0.00 | 0.00 | 86 | 1011.9 |
| 20260831111522 | 70 | 82 | 1.0 | 4.0 | 0.00 | 0.00 | 0.00 | 87 | 1012.0 |
| 20260831110022 | 70 | 68 | 0.0 | 3.0 | 0.00 | 0.00 | 0.00 | 87 | 1012.0 |
| 20260831104532 | 70 | 78 | 0.0 | 2.0 | 0.00 | 0.00 | 0.00 | 87 | 1012.1 |
| 20260831103022 | 70 | 103 | 1.0 | 5.0 | 0.00 | 0.00 | 0.00 | 87 | 1012.2 |
| 20260831101520 | 70 | 95 | 0.0 | 5.0 | 0.00 | 0.00 | 0.00 | 87 | 1012.0 |
| 20260831100019 | 70 | 149 | 1.0 | 5.0 | 0.00 | 0.00 | 0.00 | 87 | 1012.1 |
| 20260831094518 | 69 | 101 | 0.0 | 1.0 | 0.00 | 0.00 | 0.00 | 87 | 1012.1 |
| 20260831093029 | 69 | 149 | 0.0 | 0.0 | 0.00 | 0.00 | 0.00 | 86 | 1012.0 |
| 20260831091515 | 68 | 149 | 0.0 | 0.0 | 0.00 | 0.00 | 0.00 | 85 | 1012.1 |
| 20260831090015 | 68 | 149 | 0.0 | 0.0 | 0.00 | 0.00 | 0.00 | 84 | 1012.1 |
| 20260831084513 | 69 | 149 | 0.0 | 0.0 | 0.00 | 0.00 | 0.00 | 84 | 1012.1 |
| 20260831083017 | 69 | 149 | 0.0 | 0.0 | 0.00 | 0.00 | 0.00 | 83 | 1012.2 |
| 20260831081508 | 69 | 149 | 0.0 | 0.0 | 0.00 | 0.00 | 0.00 | 83 | 1012.1 |
| 20260831080005 | 69 | 149 | 0.0 | 0.0 | 0.00 | 0.00 | 0.00 | 83 | 1012.2 |
| 20260831074503 | 70 | 149 | 0.0 | 0.0 | 0.00 | 0.00 | 0.00 | 83 | 1012.1 |
| 20260831073101 | 70 | 149 | 0.0 | 0.0 | 0.00 | 0.00 | 0.00 | 82 | 1012.0 |
| 20260831071555 | 70 | 149 | 0.0 | 0.0 | 0.00 | 0.00 | 0.00 | 82 | 1012.1 |
| 20260831070056 | 71 | 149 | 0.0 | 0.0 | 0.00 | 0.00 | 0.00 | 82 | 1012.2 |
| 20260831064553 | 71 | 149 | 0.0 | 0.0 | 0.00 | 0.00 | 0.00 | 82 | 1012.4 |
| 20260831063052 | 71 | 149 | 0.0 | 0.0 | 0.00 | 0.00 | 0.00 | 82 | 1012.1 |
| 20260831061552 | 72 | 183 | 0.0 | 0.0 | 0.00 | 0.00 | 0.00 | 82 | 1012.1 |
| 20260831060051 | 72 | 203 | 0.0 | 0.0 | 0.00 | 0.00 | 0.00 | 82 | 1012.2 |
| 20260831054551 | 72 | 206 | 0.0 | 0.0 | 0.00 | 0.00 | 0.00 | 81 | 1012.2 |
| 20260831053050 | 73 | 217 | 0.0 | 0.0 | 0.00 | 0.00 | 0.00 | 80 | 1012.0 |
| 20260831051549 | 73 | 241 | 0.0 | 4.0 | 0.00 | 0.00 | 0.00 | 79 | 1012.0 |
| 20260831044603 | 74 | 218 | 0.0 | 5.0 | 0.00 | 0.00 | 0.00 | 77 | 1012.0 |
| 20260831043048 | 75 | 249 | 0.0 | 4.0 | 0.00 | 0.00 | 0.00 | 75 | 1011.7 |
| 20260831041557 | 75 | 213 | 0.0 | 6.0 | 0.00 | 0.00 | 0.00 | 74 | 1011.8 |
| 20260831040046 | 76 | 171 | 0.0 | 4.0 | 0.00 | 0.00 | 0.00 | 73 | 1011.6 |
| 20260831034546 | 76 | 182 | 1.0 | 3.0 | 0.00 | 0.00 | 0.00 | 73 | 1011.2 |
| 20260831033048 | 77 | 203 | 0.0 | 4.0 | 0.00 | 0.00 | 0.00 | 72 | 1010.9 |
| 20260831031549 | 78 | 202 | 0.0 | 4.0 | 0.00 | 0.00 | 0.00 | 71 | 1010.7 |
| 20260831030044 | 78 | 175 | 0.0 | 5.0 | 0.00 | 0.00 | 0.00 | 69 | 1010.7 |
| 20260831024607 | 79 | 181 | 0.0 | 5.0 | 0.00 | 0.00 | 0.00 | 68 | 1010.6 |
| 20260831023042 | 79 | 170 | 2.0 | 8.0 | 0.00 | 0.00 | 0.00 | 67 | 1010.6 |
| 20260831021543 | 80 | 178 | 3.0 | 8.0 | 0.00 | 0.00 | 0.00 | 64 | 1010.4 |
| 20260831014556 | 82 | 157 | 1.0 | 7.0 | 0.00 | 0.00 | 0.00 | 61 | 1010.3 |
| 20260831013038 | 83 | 230 | 2.0 | 6.0 | 0.00 | 0.00 | 0.00 | 59 | 1010.2 |
| 20260831011538 | 84 | 156 | 4.0 | 8.0 | 0.00 | 0.00 | 0.00 | 58 | 1010.2 |
| 20260831010045 | 85 | 195 | 3.0 | 10.0 | 0.00 | 0.00 | 0.00 | 55 | 1010.1 |
| 20260831004534 | 86 | 226 | 1.0 | 8.0 | 0.00 | 0.00 | 0.00 | 52 | 1010.2 |
| 20260831003034 | 87 | 171 | 2.0 | 7.0 | 0.00 | 0.00 | 0.00 | 49 | 1010.4 |
| 20260831001540 | 88 | 149 | 5.0 | 9.0 | 0.00 | 0.00 | 0.00 | 45 | 1010.3 |